Time,TemperatureF,DewpointF,PressureIn,WindDirection,WindDirectionDegrees,WindSpeedMPH,WindSpeedGustMPH,Humidity,HourlyPrecipIn,Conditions,Clouds,dailyrainin,SolarRadiationWatts/m^2,SoftwareType,DateUTC
2013-06-20 00:02:00,63.0,54.0,-100.00,SE,145,6.0,20.0,73,0.00,,,0.00,0.000000,,2013-06-20 06:02:00,
2013-06-20 00:11:00,63.0,54.0,-100.00,SE,145,6.0,20.0,73,0.00,,,0.00,0.000000,,2013-06-20 06:11:00,
2013-06-20 00:22:00,63.0,54.0,-100.00,SE,145,6.0,20.0,73,0.00,,,0.00,0.000000,,2013-06-20 06:22:00,
2013-06-20 00:33:00,63.0,54.0,-100.00,SE,145,6.0,20.0,73,0.00,,,0.00,0.000000,,2013-06-20 06:33:00,
2013-06-20 01:01:00,63.0,51.0,-100.00,SE,139,5.0,14.0,65,0.00,,,0.00,0.000000,,2013-06-20 07:01:00,
2013-06-20 01:12:00,63.0,51.0,-100.00,SE,139,5.0,14.0,65,0.00,,,0.00,0.000000,,2013-06-20 07:12:00,
2013-06-20 01:22:00,63.0,51.0,-100.00,SE,139,5.0,14.0,65,0.00,,,0.00,0.000000,,2013-06-20 07:22:00,
2013-06-20 01:34:00,63.0,51.0,-100.00,SE,139,5.0,14.0,65,0.00,,,0.00,0.000000,,2013-06-20 07:34:00,
2013-06-20 02:02:00,63.0,50.0,-100.00,SE,139,7.0,12.0,62,0.00,,,0.00,0.000000,,2013-06-20 08:02:00,
2013-06-20 02:11:00,63.0,50.0,-100.00,SE,139,7.0,12.0,62,0.00,,,0.00,0.000000,,2013-06-20 08:11:00,
2013-06-20 02:22:00,63.0,50.0,-100.00,SE,139,7.0,12.0,62,0.00,,,0.00,0.000000,,2013-06-20 08:22:00,
2013-06-20 02:34:00,63.0,50.0,-100.00,SE,139,7.0,12.0,62,0.00,,,0.00,0.000000,,2013-06-20 08:34:00,
2013-06-20 03:02:00,60.0,54.0,-100.00,SE,140,5.0,16.0,80,0.00,,,0.00,0.000000,,2013-06-20 09:02:00,
2013-06-20 03:12:00,60.0,54.0,-100.00,SE,140,5.0,16.0,80,0.00,,,0.00,0.000000,,2013-06-20 09:12:00,
2013-06-20 03:22:00,60.0,54.0,-100.00,SE,140,5.0,16.0,80,0.00,,,0.00,0.000000,,2013-06-20 09:22:00,
2013-06-20 03:33:00,60.0,54.0,-100.00,SE,140,5.0,16.0,80,0.00,,,0.00,0.000000,,2013-06-20 09:33:00,
2013-06-20 04:01:00,58.0,53.0,-100.00,SSE,154,4.0,12.0,83,0.00,,,0.00,0.000000,,2013-06-20 10:01:00,
2013-06-20 04:11:00,58.0,53.0,-100.00,SSE,154,4.0,12.0,83,0.00,,,0.00,0.000000,,2013-06-20 10:11:00,
2013-06-20 04:22:00,58.0,53.0,-100.00,SSE,154,4.0,12.0,83,0.00,,,0.00,0.000000,,2013-06-20 10:22:00,
2013-06-20 04:33:00,58.0,53.0,-100.00,SSE,154,4.0,12.0,83,0.00,,,0.00,0.000000,,2013-06-20 10:33:00,
2013-06-20 05:02:00,55.0,52.0,-100.00,SE,136,1.0,6.0,89,0.00,,,0.00,0.000000,,2013-06-20 11:02:00,
2013-06-20 05:11:00,55.0,52.0,-100.00,SE,136,1.0,6.0,89,0.00,,,0.00,0.000000,,2013-06-20 11:11:00,
2013-06-20 05:22:00,55.0,52.0,-100.00,SE,136,1.0,6.0,89,0.00,,,0.00,0.000000,,2013-06-20 11:22:00,
2013-06-20 05:34:00,55.0,52.0,-100.00,SE,136,1.0,6.0,89,0.00,,,0.00,0.000000,,2013-06-20 11:34:00,
2013-06-20 06:02:00,52.0,51.0,-100.00,NE,40,2.0,7.0,96,0.00,,,0.00,3.000000,,2013-06-20 12:02:00,
2013-06-20 06:11:00,52.0,51.0,-100.00,NE,40,2.0,7.0,96,0.00,,,0.00,3.000000,,2013-06-20 12:11:00,
2013-06-20 06:22:00,52.0,51.0,-100.00,NE,40,2.0,7.0,96,0.00,,,0.00,3.000000,,2013-06-20 12:22:00,
2013-06-20 06:34:00,52.0,51.0,-100.00,NE,40,2.0,7.0,96,0.00,,,0.00,3.000000,,2013-06-20 12:34:00,
2013-06-20 07:02:00,53.0,43.0,-100.00,North,359,2.0,7.0,70,0.00,,,0.00,38.000000,,2013-06-20 13:02:00,
2013-06-20 07:11:00,53.0,43.0,-100.00,North,359,2.0,7.0,70,0.00,,,0.00,38.000000,,2013-06-20 13:11:00,
2013-06-20 07:22:00,53.0,43.0,-100.00,North,359,2.0,7.0,70,0.00,,,0.00,38.000000,,2013-06-20 13:22:00,
2013-06-20 07:33:00,53.0,43.0,-100.00,North,359,2.0,7.0,70,0.00,,,0.00,38.000000,,2013-06-20 13:33:00,
2013-06-20 08:01:00,55.0,42.0,-100.00,NW,311,2.0,5.0,62,0.00,,,0.00,59.000000,,2013-06-20 14:01:00,
2013-06-20 08:11:00,55.0,42.0,-100.00,NW,311,2.0,5.0,62,0.00,,,0.00,59.000000,,2013-06-20 14:11:00,
2013-06-20 08:22:00,55.0,42.0,-100.00,NW,311,2.0,5.0,62,0.00,,,0.00,59.000000,,2013-06-20 14:22:00,
2013-06-20 08:32:00,55.0,42.0,-100.00,NW,311,2.0,5.0,62,0.00,,,0.00,59.000000,,2013-06-20 14:32:00,
2013-06-20 09:02:00,64.0,46.0,-100.00,WNW,288,2.0,6.0,52,0.00,,,0.00,124.000000,,2013-06-20 15:02:00,
2013-06-20 09:11:00,64.0,46.0,-100.00,WNW,288,2.0,6.0,52,0.00,,,0.00,124.000000,,2013-06-20 15:11:00,
2013-06-20 09:22:00,64.0,46.0,-100.00,WNW,288,2.0,6.0,52,0.00,,,0.00,124.000000,,2013-06-20 15:22:00,
2013-06-20 09:33:00,64.0,46.0,-100.00,WNW,288,2.0,6.0,52,0.00,,,0.00,124.000000,,2013-06-20 15:33:00,
2013-06-20 10:11:00,70.0,43.0,-100.00,WSW,238,4.0,10.0,38,0.00,,,0.00,579.000000,,2013-06-20 16:11:00,
2013-06-20 10:22:00,70.0,43.0,-100.00,WSW,238,4.0,10.0,38,0.00,,,0.00,579.000000,,2013-06-20 16:22:00,
2013-06-20 10:33:00,70.0,43.0,-100.00,WSW,238,4.0,10.0,38,0.00,,,0.00,579.000000,,2013-06-20 16:33:00,
2013-06-20 11:01:00,72.0,29.0,-100.00,WSW,238,5.0,8.0,20,0.00,,,0.00,827.000000,,2013-06-20 17:01:00,
2013-06-20 11:11:00,72.0,29.0,-100.00,WSW,238,5.0,8.0,20,0.00,,,0.00,827.000000,,2013-06-20 17:11:00,
2013-06-20 11:22:00,72.0,29.0,-100.00,WSW,238,5.0,8.0,20,0.00,,,0.00,827.000000,,2013-06-20 17:22:00,
2013-06-20 11:32:00,72.0,29.0,-100.00,WSW,238,5.0,8.0,20,0.00,,,0.00,827.000000,,2013-06-20 17:32:00,
2013-06-20 12:01:00,74.0,22.0,-100.00,West,270,4.0,10.0,14,0.00,,,0.00,957.000000,,2013-06-20 18:01:00,
2013-06-20 12:11:00,74.0,22.0,-100.00,West,270,4.0,10.0,14,0.00,,,0.00,957.000000,,2013-06-20 18:11:00,
2013-06-20 12:22:00,74.0,22.0,-100.00,West,270,4.0,10.0,14,0.00,,,0.00,957.000000,,2013-06-20 18:22:00,
2013-06-20 12:33:00,74.0,22.0,-100.00,West,270,4.0,10.0,14,0.00,,,0.00,957.000000,,2013-06-20 18:33:00,
2013-06-20 13:01:00,76.0,22.0,-100.00,SSW,213,4.0,11.0,13,0.00,,,0.00,1021.000000,,2013-06-20 19:01:00,
2013-06-20 13:11:00,76.0,22.0,-100.00,SSW,213,4.0,11.0,13,0.00,,,0.00,1021.000000,,2013-06-20 19:11:00,
2013-06-20 13:22:00,76.0,22.0,-100.00,SSW,213,4.0,11.0,13,0.00,,,0.00,1021.000000,,2013-06-20 19:22:00,
2013-06-20 15:01:00,76.0,32.0,-100.00,SSW,195,4.0,9.0,20,0.00,,,0.00,996.000000,,2013-06-20 21:01:00,